Location: Casper
(42.8670°N, 106.3130°W)
Time: 12:46:50
(UTC-07:00)

Daily predictions for brighter satellites

Satellite Brightness Start Highest point End
(mag) Time Altitude Azimuth Time Altitude Azimuth Time Altitude Azimuth
Cosmos 1656 Rocket 4.4 16:53:55 10° SW 16:59:19 51° WNW 17:04:40 10° NNE
Cosmos 2082 4.5 16:55:48 10° N 17:00:40 29° NE 17:05:30 10° ESE
ATLAS 2AS CENTAUR R/B 3.2 16:55:04 10° SSW 17:02:42 68° ESE 17:10:46 10° NE
BREEZE-M DEB (TANK) 4.1 17:01:16 10° W 17:03:15 31° SSW 17:06:42 10° SE
ATLAS 3B R/B 2.8 16:58:18 10° NNW 17:04:49 50° NE 17:11:07 10° ESE
SMAP 3.4 17:00:52 10° SE 17:05:17 44° ENE 17:09:42 10° N
NOSS 2-3 (E) 4.4 17:01:25 10° SW 17:06:02 59° NW 17:11:29 10° NNE
COSMO-SKYMED 1 4.2 17:05:06 10° NE 17:07:43 16° E 17:10:20 10° SE
Cosmos 1500 3.9 17:04:05 10° NNW 17:07:49 58° W 17:11:30 10° S
Cosmos 2150 Rocket 4.1 17:07:07 10° SSW 17:12:35 86° ESE 17:18:04 10° NNE
Cosmos 2227 Rocket 2.5 17:08:01 10° NNW 17:13:26 44° ENE 17:18:47 10° SE
Cosmos 2279 Rocket 4.0 17:09:07 10° S 17:15:20 72° E 17:21:35 10° NNE
SJ 16-02 2.5 17:12:14 10° SSE 17:15:43 23° E 17:19:12 10° NE
Cosmos 1975 Rocket 3.2 17:11:27 10° S 17:15:55 86° W 17:20:26 10° N
Meteor 1-12 Rocket 4.3 17:11:12 10° N 17:16:55 83° E 17:22:42 10° S
Aureole 1 Rocket 4.4 17:11:09 10° NNW 17:17:11 80° WSW 17:24:53 10° SSE
ERS-2 3.7 17:14:59 10° ESE 17:17:12 15° ENE 17:19:26 10° NNE
Cosmos 1271 Rocket 2.8 17:13:49 10° N 17:17:33 53° ENE 17:21:19 10° SSE
USA 215 3.3 17:11:35 10° SE 17:18:08 89° SSW 17:24:43 10° NW
ALOS 3.5 17:15:30 10° ESE 17:18:47 19° ENE 17:22:03 10° NNE
Cosmos 2219 3.6 17:13:24 10° NNW 17:18:59 69° WSW 17:24:34 10° SSE
CORIOLIS 4.2 17:17:59 10° SSE 17:23:18 60° ENE 17:28:36 10° N
Okean 1 3.9 17:20:35 10° SSW 17:24:29 58° W 17:28:25 10° N
Meteor 2-9 Rocket 4.4 17:20:46 10° N 17:26:02 44° ENE 17:31:10 10° SSE
Atlas Centaur 2 4.1 17:25:43 10° SW 17:29:40 19° SSW 17:33:03 10° SSE
SPOT 3 Rocket 4.4 17:27:32 10° ESE 17:31:52 28° ENE 17:36:12 10° N
Cosmos 1484 Rocket 2.9 17:28:28 10° SSE 17:32:29 87° WSW 17:36:32 10° NNW
Cosmos 1980 Rocket 3.8 17:29:58 10° SE 17:32:48 14° E 17:34:03 13° E
IRS-1A Rocket 4.3 17:28:56 10° SSE 17:34:24 57° ENE 17:39:48 10° N
Abrixas rocket 3.1 17:35:24 10° W 17:38:28 38° NNW 17:40:23 19° NE
Cosmos 1666 2.6 17:36:20 10° N 17:40:06 85° W 17:43:50 10° S
Cosmos 2297 Rocket 2.2 17:34:41 10° NNW 17:40:17 60° ENE 17:45:52 10° SE
Cosmos 1975 4.1 17:37:18 10° NNW 17:41:10 44° W 17:45:01 10° SSW
Cosmos 1025 Rocket 4.3 17:38:42 10° SE 17:41:49 20° E 17:42:41 19° ENE
Cosmos 724 4.3 17:36:36 10° NNW 17:42:20 57° NE 17:48:01 10° SE
ISS -3.4 17:39:41 10° WNW 17:42:57 62° SW 17:46:11 10° SE
Cosmos 1536 Rocket 3.6 17:39:52 10° S 17:44:08 57° E 17:48:24 10° NNE
CENTAUR R/B 3.9 17:38:55 10° NNW 17:45:24 29° NNE 17:50:09 17° E
Ariane Rocket 3.3 17:41:23 10° S 17:46:25 71° WSW 17:51:29 10° NNW
PSLV R/B 3.7 17:44:55 10° WSW 17:47:59 47° SSE 17:49:35 23° ESE
Cosmos 389 Rocket 4.1 17:47:53 10° NNW 17:51:08 37° W 17:54:20 10° SSW
Cosmos 1656 3.8 17:46:15 10° S 17:51:39 53° ESE 17:56:01 16° NE
Cosmos 1269 Rocket 4.1 17:48:21 10° N 17:53:33 52° ENE 17:58:42 10° SE
SKYMED 2 3.8 17:52:14 12° NNE 17:56:07 49° E 18:00:19 10° S
Cosmos 1125 Rocket 3.5 17:53:02 10° S 17:58:18 70° ESE 18:03:02 13° NNE
Meteor 2-4 Rocket 3.5 17:55:37 10° S 18:01:03 83° E 18:06:27 10° NNE
CZ-4 R/B 1.8 17:57:34 10° S 18:01:23 61° W 18:05:19 10° NNW
BREEZE-M DEB (TANK) 3.6 17:59:51 10° NW 18:02:39 53° NNE 18:05:59 22° E
Cosmos 1048 Rocket 4.0 18:01:01 10° NNW 18:06:26 83° ENE 18:11:48 10° SSE
USA 238 DEB 4.1 18:03:13 10° NW 18:10:17 70° WSW 18:17:25 10° SSE
USA 238 4.1 18:03:19 10° NW 18:10:24 71° WSW 18:17:32 10° SSE
Cosmos 2369 3.7 18:08:38 10° SSW 18:14:19 87° WNW 18:18:53 17° NNE
Cosmos 2278 3.7 18:09:35 10° SSW 18:15:16 90° W 18:19:42 18° NNE
Cosmos 2266 Rocket 4.0 18:09:15 10° N 18:15:20 83° W 18:21:31 10° S
Cosmos 2263 Rocket 4.2 18:15:01 10° NNE 18:15:21 11° NNE 18:15:21 11° NNE
Cosmos 372 Rocket 4.0 18:13:59 10° SSW 18:19:12 81° WNW 18:23:18 17° NNE
Gblst 52 Del rocket 4.3 18:13:49 10° NW 18:19:23 60° NNE 18:22:03 33° E
NOAA 12 4.0 18:14:58 10° SSE 18:20:12 70° ENE 18:25:27 10° N
Okean 2 3.4 18:17:02 10° S 18:21:01 52° E 18:21:28 49° ENE
Meteor 1-15 Rocket 4.2 18:15:47 10° N 18:21:46 77° E 18:27:39 10° SSE
EO 1 Del DPAF 3.1 18:20:18 35° NNE 18:21:48 78° E 18:25:37 10° S
MONITOR-E 4.2 18:20:12 10° S 18:23:14 74° W 18:26:17 10° NNW
FENGYUN 3A 3.5 18:18:22 10° SSE 18:23:43 77° ENE 18:29:06 10° N
MTI 4.4 18:25:35 30° N 18:26:55 56° WNW 18:30:06 10° SSW
DELTA 2 R/B (1) 3.8 18:22:00 10° W 18:27:30 62° S 18:29:50 34° ESE
Cosmos 1515 3.5 18:25:12 10° S 18:28:59 79° E 18:29:30 63° NNE
YAOGAN 1 3.7 18:25:19 10° S 18:29:27 45° W 18:33:37 10° NNW
Cosmos 1697 Rocket 2.6 18:29:47 10° SSW 18:35:26 82° ESE 18:37:59 34° NNE
NOSS 3-2 (A) 4.1 18:32:14 10° NW 18:39:48 79° WSW 18:48:01 10° SSE
Gbstr 26 Del rocket 4.3 18:34:34 10° SW 18:42:36 86° SE 18:45:22 43° ENE
COSMO-SKYMED 1 3.4 18:40:49 15° N 18:44:09 49° WNW 18:48:19 10° SSW
NOSS 3-2 (C) 4.0 18:39:16 10° NW 18:46:52 89° SW 18:55:08 10° SSE
Cosmos 1244 Rocket 4.3 18:42:40 10° N 18:48:51 82° E 18:55:02 10° S
ERS-2 3.6 18:47:08 10° SSW 18:50:33 37° W 18:54:01 10° NNW
FengYun 1-2 T 4.1 18:47:24 10° SSE 18:52:58 73° ENE 18:58:38 10° N
SJ 16-02 2.9 18:50:10 10° SW 18:54:07 32° WNW 18:56:29 20° NNW
ATLAS 2AS CENTAUR R/B 4.2 18:47:06 10° WSW 18:54:20 37° NW 18:59:48 18° NNE
ATLAS 3B R/B 4.1 18:49:23 10° NW 18:55:15 34° WSW 19:00:59 10° S
ALOS 3.2 18:51:20 10° S 18:55:51 48° W 19:00:23 10° NNW
Cosmos 2227 Rocket 4.2 18:52:29 10° NW 18:57:14 28° WSW 19:01:57 10° SSW
BREEZE-M DEB (TANK) 4.1 18:55:37 10° NW 18:57:51 39° NNW 18:57:51 39° NNW
Okean 1-7 Rocket 4.2 19:05:22 10° SSW 19:09:05 53° WSW 19:09:05 53° WSW
Cosmos 1553 Rocket 3.9 19:03:51 10° S 19:10:14 78° E 19:10:50 71° NE
SL-08 R/B 4.3 19:06:01 10° N 19:12:21 82° E 19:18:32 10° S
Cosmos 1417 Rocket 4.4 19:07:05 10° S 19:13:14 88° W 19:14:49 54° N
Cosmos 1066 Rocket 4.4 19:09:08 10° S 19:13:38 60° S 19:13:38 60° S
NOSS 3-4 (A) 3.6 19:08:39 10° SW 19:14:51 69° NW 19:16:04 56° N
NOSS 3-4 (C) 3.6 19:08:45 10° SW 19:14:57 69° NW 19:16:07 57° N
Cosmos 1980 Rocket 2.2 19:10:19 10° SSW 19:15:52 81° W 19:15:52 81° W
CENTAUR R/B 2.9 19:29:16 10° NW 19:37:14 85° NE 19:37:24 84° E
